Location: *
(2.5500°S, 65.9667°W)
Time: 06:49:39
(UTC+00:00)

Explorer 7 - Pass Details

Date: 20 April 2024
Orbit: 467 x 625 km, 50.3° (Epoch: 26 May)

Event Time Altitude Azimuth Distance (km) Brightness Sun altitude
Rises 11:22:13 0° 197° (SSW) 2,683 10.0 14.0°
Reaches altitude 10° 11:24:42 10° 183° (S) 1,822 9.4 14.6°
Maximum altitude 11:28:09 25° 127° (SE) 1,170 9.2 15.4°
Drops below altitude 10° 11:31:43 10° 71° (ENE) 1,898 12.2 16.3°
Sets 11:34:21 0° 58° (ENE) 2,824 11.8 17.0°
